Location: Bednik
(45.3500°N, 16.3833°E)
Time: 16:38:33
(UTC+00:00)

Helios 1B rocket - Pass Details

Date: 08 August 2020
Orbit: 575 x 583 km, 98.1° (Epoch: 18 September)

Event Time Altitude Azimuth Distance (km) Brightness Sun altitude
Rises 23:17:06 0° 18° (NNE) 2,798 7.1 -28.7°
Reaches altitude 10° 23:19:19 10° 23° (NNE) 1,894 5.9 -28.7°
Enters shadow 23:21:49 33° 43° (NE) 979 3.9 -28.7°
